シューメーカー-レヴィ第8彗星

135P/Shoemaker-Levy 8 (2014)

English version
Home page
Updated on June 11, 2016

---------------------------------------------------------------------

・ プロフィール

・ 軌道要素

Epoch 2014 Oct. 30.0 TT = JDT 2456960.5
T 2014 Nov. 1.59560 TT                                  MPCW
q   2.6796896            (2000.0)            P               Q
n   0.13296647     Peri.   21.94768     -0.57398738     +0.81683044
a   3.8016717      Node   213.10340     -0.76612041     -0.56055230
e   0.2951286      Incl.    6.06199     -0.28913318     -0.13626870
P   7.41
From 88 observations 1992 Mar. 30-1999 June 9, mean residual 0".8.

・ 光度変化

        m1 = 10.0 + 5 logΔ + 17.5 log r

---------------------------------------------------------------------

軌道要素はM.P.E.C. 2015-E14に掲載されたものです。
光度グラフはComet for Windowsで作成したものです。

---------------------------------------------------------------------

Copyright(C) Seiichi Yoshida (comet@aerith.net). All rights reserved.